Weather History for KBBW - November, 2012

Change the Weather History Date:

Monday, November 26, 2012

  Actual Average Record
Temperature  
Mean Temperature 20 °F 30 °F  
Max Temperature 32 °F 43 °F 73 °F (1960)
Min Temperature 7 °F 18 °F -14 °F (1975)
Degree Days  
Heating Degree Days 45 35  
Month to date heating degree days 705 733  
Cooling Degree Days 0 0  
Month to date cooling degree days 0 0  
Year to date cooling degree days 1077 768  
Moisture  
Dew Point 18 °F    
Average Humidity 89    
Maximum Humidity 100    
Minimum Humidity 78    
Precipitation  
Precipitation 0.02 in 0.02 in 0.75 in (1917)
Sea Level Pressure  
Sea Level Pressure 30.36 in    
Wind  
Wind Speed 7 mph (NNE)    
Max Wind Speed 17 mph    
Max Gust Speed 22 mph    
Visibility 4 miles    
Events Fog , Rain , Snow    
T = Trace of Precipitation, MM = Missing Value Source: NWS Daily Summary

Daily Weather History Graph

Daily Weather History Graph

Search for Another Location

Airport or City:

Trip Planner

Search our weather history database for the weather conditions in past years. The results will help you decide how hot, cold, wet, or windy it might be!

Date:

Astronomy

Nov. 26, 2012 Rise Set
Actual Time 7:40 AM CST 5:11 PM CST
Civil Twilight 7:09 AM CST 5:41 PM CST
Nautical Twilight 6:35 AM CST 6:16 PM CST
Astronomical Twilight 6:02 AM CST 6:49 PM CST
Moon 4:05 PM CST (11/26) 5:51 AM CST (11/26)
Length of Visible Light 10h 31m
Length of Day
9h 30m
Waxing Gibbous, 97% of the Moon is Illuminated
Nov 26
Waxing Gibbous
Nov 28
Full
Dec 6
Last Quarter
Dec 13
New
Dec 19
First Quarter

Hourly Weather History & Observations

Time (CST) Temp. Windchill Dew Point Humidity Pressure Visibility Wind Dir Wind Speed Gust Speed Precip Events Conditions
12:11 AM 30.2 °F 19.8 °F 26.6 °F 86% 30.11 in 10.0 mi NE 13.8 mph - N/A   Overcast
12:53 AM 30.9 °F 21.2 °F 25.0 °F 79% 30.16 in 10.0 mi NE 12.7 mph - N/A   Overcast
1:53 AM 30.9 °F 21.7 °F 25.0 °F 79% 30.17 in 10.0 mi NNE 11.5 mph - N/A   Overcast
2:53 AM 30.0 °F 20.5 °F 25.0 °F 82% 30.21 in 10.0 mi NNE 11.5 mph 21.9 mph N/A   Overcast
3:53 AM 28.9 °F 19.8 °F 25.0 °F 85% 30.24 in 8.0 mi NNE 10.4 mph 18.4 mph N/A   Overcast
4:53 AM 27.0 °F 17.3 °F 24.1 °F 89% 30.27 in 4.0 mi NNE 10.4 mph - 0.00 in Snow Light Snow
5:05 AM 26.6 °F 17.5 °F 24.8 °F 93% 30.21 in 2.5 mi NNE 9.2 mph - 0.00 in Snow Light Snow
5:18 AM 26.6 °F 16.2 °F 24.8 °F 93% 30.21 in 3.0 mi NNE 11.5 mph - 0.00 in Snow Light Snow
5:53 AM 27.0 °F 16.7 °F 24.1 °F 89% 30.30 in 5.0 mi NNE 11.5 mph - 0.00 in Snow Light Snow
6:10 AM 26.6 °F 18.2 °F 24.8 °F 93% 30.24 in 6.0 mi North 8.1 mph - 0.00 in   Overcast
6:28 AM 26.6 °F 15.7 °F 24.8 °F 93% 30.25 in 4.0 mi NNE 12.7 mph 19.6 mph 0.00 in Snow Light Snow
6:38 AM 26.6 °F 15.7 °F 23.0 °F 86% 30.25 in 4.0 mi NNE 12.7 mph - 0.00 in Snow Light Snow
6:53 AM 26.1 °F 15.6 °F 23.0 °F 88% 30.33 in 3.0 mi NNE 11.5 mph - 0.00 in Snow Light Snow
7:02 AM 26.6 °F 16.8 °F 23.0 °F 86% 30.26 in 2.5 mi NNE 10.4 mph - 0.00 in Snow Light Snow
7:19 AM 26.6 °F 17.5 °F 24.8 °F 93% 30.27 in 1.5 mi NNE 9.2 mph - 0.00 in Snow Light Snow
7:32 AM 26.6 °F 15.7 °F 24.8 °F 93% 30.28 in 1.5 mi NNE 12.7 mph - 0.00 in Snow Light Snow
7:53 AM 25.0 °F 14.2 °F 23.0 °F 92% 30.37 in 1.8 mi NNE 11.5 mph - 0.00 in Snow Light Snow
8:21 AM 24.8 °F 12.9 °F 21.2 °F 86% 30.31 in 0.8 mi NNE 13.8 mph 20.7 mph 0.00 in Snow Light Snow
8:53 AM 24.1 °F 13.7 °F 21.0 °F 88% 30.43 in 0.5 mi NNE 10.4 mph - 0.01 in Fog , Snow Snow
9:02 AM 24.8 °F 14.0 °F 21.2 °F 86% 30.36 in 0.5 mi North 11.5 mph - 0.00 in Fog , Snow Snow
9:36 AM 24.8 °F 12.9 °F 21.2 °F 86% 30.37 in 0.8 mi North 13.8 mph - 0.00 in Snow Light Snow
9:53 AM 24.1 °F 13.7 °F 21.0 °F 88% 30.47 in 0.8 mi North 10.4 mph - 0.00 in Snow Light Snow
10:13 AM 24.8 °F 14.6 °F 21.2 °F 86% 30.40 in 1.0 mi North 10.4 mph - 0.01 in Snow Light Snow
10:24 AM 24.8 °F 14.6 °F 21.2 °F 86% 30.40 in 1.0 mi North 10.4 mph - 0.01 in Snow Light Snow
10:32 AM 24.8 °F 14.6 °F 21.2 °F 86% 30.40 in 1.5 mi North 10.4 mph - 0.01 in Snow Light Snow
10:53 AM 25.0 °F 16.3 °F 21.0 °F 85% 30.50 in 2.0 mi North 8.1 mph - 0.01 in Snow Light Snow
11:02 AM 24.8 °F 14.6 °F 19.4 °F 80% 30.41 in 4.0 mi North 10.4 mph - 0.00 in Snow Light Snow
11:53 AM 26.1 °F 16.8 °F 21.0 °F 81% 30.49 in 10.0 mi North 9.2 mph - 0.00 in   Mostly Cloudy
11:57 AM 26.6 °F 17.5 °F 21.2 °F 80% 30.40 in 10.0 mi North 9.2 mph - 0.00 in Rain Light Freezing Rain
12:53 PM 25.0 °F 14.8 °F 19.9 °F 81% 30.49 in 9.0 mi North 10.4 mph - 0.00 in   Mostly Cloudy
1:53 PM 25.0 °F 14.8 °F 21.0 °F 85% 30.47 in 10.0 mi North 10.4 mph - N/A   Overcast
2:53 PM 25.0 °F 18.1 °F 21.0 °F 85% 30.47 in 10.0 mi NW 5.8 mph - 0.00 in   Overcast
3:53 PM 26.1 °F 18.4 °F 21.0 °F 81% 30.45 in 9.0 mi NNW 6.9 mph - 0.00 in   Mostly Cloudy
4:23 PM 24.8 °F 16.9 °F 19.4 °F 80% 30.36 in 9.0 mi North 6.9 mph - N/A   Partly Cloudy
4:42 PM 23.0 °F 18.4 °F 19.4 °F 86% 30.37 in 7.0 mi NNW 3.5 mph - N/A   Mostly Cloudy
4:53 PM 23.0 °F - 19.9 °F 88% 30.47 in 8.0 mi Calm Calm - N/A   Mostly Cloudy
5:35 PM 21.2 °F - 19.4 °F 93% 30.36 in 9.0 mi Calm Calm - N/A   Scattered Clouds
5:53 PM 19.0 °F - 17.1 °F 92% 30.48 in 7.0 mi Calm Calm - N/A   Clear
6:53 PM 16.0 °F - 12.9 °F 88% 30.48 in 6.0 mi Calm Calm - N/A   Clear
7:53 PM 10.9 °F - 8.1 °F 88% 30.49 in 6.0 mi Calm Calm - N/A   Scattered Clouds
8:03 PM 8.6 °F - 8.6 °F 100% 30.36 in 2.5 mi Calm Calm - N/A   Mostly Cloudy
8:06 PM 8.6 °F - 8.6 °F 100% 30.36 in 1.0 mi Calm Calm - N/A   Mist
8:19 PM 10.4 °F - 8.6 °F 92% 30.36 in 0.2 mi Calm Calm - N/A Fog Light Freezing Fog
8:53 PM 9.0 °F - 8.1 °F 96% 30.49 in 0.2 mi Calm Calm - N/A Fog Light Freezing Fog
9:47 PM 10.4 °F - 8.6 °F 92% 30.35 in 1.2 mi Calm Calm - N/A   Overcast
9:53 PM 8.1 °F - 6.1 °F 92% 30.48 in 2.0 mi Calm Calm - N/A   Overcast
9:56 PM 8.6 °F - 6.8 °F 92% 30.35 in 1.0 mi Calm Calm - N/A   Mist
10:03 PM 8.6 °F - 6.8 °F 92% 30.35 in 0.2 mi Calm Calm - N/A Fog Light Freezing Fog
10:53 PM 8.1 °F - 6.1 °F 92% 30.47 in 0.2 mi Calm Calm - N/A Fog Light Freezing Fog
11:09 PM 8.6 °F - 5.0 °F 85% 30.34 in 1.0 mi Calm Calm - N/A   Clear
11:12 PM 8.6 °F - 6.8 °F 92% 30.34 in 2.0 mi Calm Calm - N/A   Clear
11:19 PM 8.6 °F - 5.0 °F 85% 30.35 in 4.0 mi Calm Calm - N/A   Clear
11:40 PM 10.4 °F - 6.8 °F 85% 30.34 in 2.0 mi Calm Calm - N/A   Clear
11:51 PM 8.6 °F - 6.8 °F 92% 30.34 in 4.0 mi Calm Calm - N/A   Clear
11:53 PM 9.0 °F - 6.1 °F 88% 30.47 in 2.5 mi Calm Calm - N/A   Clear